| time (UTC) | temp F | wind direction | speed knots | gust knots | rain 1hr in | rain 24hr in | rain mn in | humidity % | barometer mb |
| 20260505174000 | 57 | 210 | 0.0 | 0.0 | 0.00 | 0.00 | 0.00 | 38 | 1014.0 |
| 20260505173500 | 57 | 210 | 0.0 | 0.0 | 0.00 | 0.00 | 0.00 | 38 | 1014.0 |
| 20260505172505 | 58 | 210 | 0.0 | 0.0 | 0.00 | 0.00 | 0.00 | 38 | 1014.0 |
| 20260505172004 | 58 | 210 | 0.0 | 0.0 | 0.00 | 0.00 | 0.00 | 38 | 1014.0 |
| 20260505171504 | 58 | 210 | 0.0 | 0.0 | 0.00 | 0.00 | 0.00 | 39 | 1014.0 |
| 20260505171004 | 58 | 210 | 0.0 | 0.0 | 0.00 | 0.00 | 0.00 | 39 | 1014.0 |
| 20260505170503 | 59 | 219 | 0.0 | 0.0 | 0.00 | 0.00 | 0.00 | 38 | 1014.0 |
| 20260505170003 | 59 | 219 | 0.0 | 0.0 | 0.00 | 0.00 | 0.00 | 38 | 1014.0 |
| 20260505165502 | 59 | 219 | 0.0 | 0.0 | 0.00 | 0.00 | 0.00 | 41 | 1014.0 |
| 20260505165002 | 59 | 219 | 0.0 | 0.0 | 0.00 | 0.00 | 0.00 | 41 | 1014.0 |
| 20260505164502 | 60 | 218 | 0.0 | 0.0 | 0.00 | 0.00 | 0.00 | 41 | 1013.0 |
| 20260505164001 | 60 | 218 | 0.0 | 0.0 | 0.00 | 0.00 | 0.00 | 41 | 1013.0 |
| 20260505163501 | 60 | 218 | 0.0 | 0.0 | 0.00 | 0.00 | 0.00 | 40 | 1014.0 |
| 20260505163001 | 60 | 218 | 0.0 | 0.0 | 0.00 | 0.00 | 0.00 | 40 | 1014.0 |
| 20260505162501 | 60 | 218 | 0.0 | 0.0 | 0.00 | 0.00 | 0.00 | 38 | 1014.0 |
| 20260505162000 | 60 | 218 | 0.0 | 0.0 | 0.00 | 0.00 | 0.00 | 38 | 1014.0 |
| 20260505161004 | 61 | 199 | 0.0 | 0.0 | 0.00 | 0.00 | 0.00 | 35 | 1014.0 |
| 20260505160504 | 61 | 203 | 0.0 | 0.0 | 0.00 | 0.00 | 0.00 | 34 | 1014.0 |
| 20260505153002 | 62 | 199 | 0.0 | 0.0 | 0.00 | 0.00 | 0.00 | 29 | 1014.0 |
| 20260505152501 | 62 | 199 | 0.0 | 0.0 | 0.00 | 0.00 | 0.00 | 28 | 1014.0 |
| 20260505152001 | 62 | 199 | 0.0 | 0.0 | 0.00 | 0.00 | 0.00 | 28 | 1014.0 |
| 20260505151501 | 62 | 183 | 0.0 | 0.0 | 0.00 | 0.00 | 0.00 | 28 | 1014.0 |
| 20260505151001 | 62 | 183 | 0.0 | 0.0 | 0.00 | 0.00 | 0.00 | 28 | 1014.0 |
| 20260505150500 | 63 | 192 | 0.0 | 0.0 | 0.00 | 0.00 | 0.00 | 28 | 1014.0 |
| 20260505140501 | 64 | 191 | 0.0 | 0.0 | 0.00 | 0.00 | 0.00 | 32 | 1014.0 |
| 20260505125000 | 63 | 222 | 0.0 | 0.0 | 0.00 | 0.00 | 0.00 | 38 | 1014.0 |
| 20260505124500 | 63 | 225 | 0.0 | 0.0 | 0.00 | 0.00 | 0.00 | 39 | 1014.0 |
| 20260505124005 | 63 | 225 | 0.0 | 0.0 | 0.00 | 0.00 | 0.00 | 39 | 1014.0 |
| 20260505123504 | 62 | 225 | 0.0 | 0.0 | 0.00 | 0.00 | 0.00 | 39 | 1014.0 |
| 20260505123004 | 62 | 225 | 0.0 | 0.0 | 0.00 | 0.00 | 0.00 | 39 | 1014.0 |
| 20260505122504 | 62 | 225 | 0.0 | 0.0 | 0.00 | 0.00 | 0.00 | 41 | 1014.0 |
| 20260505122003 | 62 | 225 | 0.0 | 0.0 | 0.00 | 0.00 | 0.00 | 41 | 1014.0 |
| 20260505121503 | 62 | 215 | 0.0 | 0.0 | 0.00 | 0.00 | 0.00 | 43 | 1014.0 |
| 20260505121003 | 62 | 215 | 0.0 | 0.0 | 0.00 | 0.00 | 0.00 | 43 | 1014.0 |
| 20260505120502 | 62 | 224 | 0.0 | 0.0 | 0.00 | 0.00 | 0.00 | 43 | 1014.0 |
| 20260505120002 | 62 | 224 | 0.0 | 0.0 | 0.00 | 0.00 | 0.00 | 43 | 1014.0 |
| 20260505115501 | 62 | 223 | 0.0 | 0.0 | 0.00 | 0.00 | 0.00 | 46 | 1014.0 |
| 20260505115001 | 62 | 223 | 0.0 | 0.0 | 0.00 | 0.00 | 0.00 | 46 | 1014.0 |
| 20260505114501 | 62 | 199 | 0.0 | 0.0 | 0.00 | 0.00 | 0.00 | 50 | 1014.0 |
| 20260505114000 | 62 | 199 | 0.0 | 0.0 | 0.00 | 0.00 | 0.00 | 50 | 1014.0 |
| 20260505113500 | 61 | 220 | 0.0 | 0.0 | 0.00 | 0.00 | 0.00 | 49 | 1014.0 |
| 20260505113005 | 61 | 220 | 0.0 | 0.0 | 0.00 | 0.00 | 0.00 | 49 | 1014.0 |
| 20260505112504 | 62 | 218 | 0.0 | 0.0 | 0.00 | 0.00 | 0.00 | 47 | 1014.0 |
| 20260505112004 | 62 | 218 | 0.0 | 0.0 | 0.00 | 0.00 | 0.00 | 47 | 1014.0 |
| 20260505111504 | 62 | 219 | 0.0 | 0.0 | 0.00 | 0.00 | 0.00 | 49 | 1014.0 |
| 20260505111003 | 62 | 219 | 0.0 | 0.0 | 0.00 | 0.00 | 0.00 | 49 | 1014.0 |
| 20260505110503 | 61 | 219 | 0.0 | 0.0 | 0.00 | 0.00 | 0.00 | 51 | 1014.0 |
| 20260505102004 | 60 | 219 | 0.0 | 0.0 | 0.00 | 0.00 | 0.00 | 52 | 1015.0 |
| 20260505101504 | 59 | 206 | 0.0 | 0.0 | 0.00 | 0.00 | 0.00 | 56 | 1015.0 |
| 20260505101004 | 59 | 206 | 0.0 | 0.0 | 0.00 | 0.00 | 0.00 | 56 | 1015.0 |
| 20260505100503 | 59 | 206 | 0.0 | 0.0 | 0.00 | 0.00 | 0.00 | 55 | 1015.0 |
| 20260505100003 | 59 | 206 | 0.0 | 0.0 | 0.00 | 0.00 | 0.00 | 55 | 1015.0 |
| 20260505095502 | 59 | 206 | 0.0 | 0.0 | 0.00 | 0.00 | 0.00 | 54 | 1015.0 |
| 20260505095002 | 59 | 206 | 0.0 | 0.0 | 0.00 | 0.00 | 0.00 | 54 | 1015.0 |
| 20260505094501 | 59 | 218 | 0.0 | 0.0 | 0.00 | 0.00 | 0.00 | 55 | 1015.0 |
| 20260505094001 | 59 | 218 | 0.0 | 0.0 | 0.00 | 0.00 | 0.00 | 55 | 1015.0 |
| 20260505093501 | 60 | 111 | 0.0 | 0.0 | 0.00 | 0.00 | 0.00 | 55 | 1015.0 |
| 20260505093000 | 60 | 111 | 0.0 | 0.0 | 0.00 | 0.00 | 0.00 | 55 | 1015.0 |
| 20260505092505 | 58 | 164 | 0.0 | 0.0 | 0.00 | 0.00 | 0.00 | 59 | 1015.0 |
| 20260505092005 | 58 | 164 | 0.0 | 0.0 | 0.00 | 0.00 | 0.00 | 59 | 1015.0 |
| 20260505091504 | 58 | 212 | 0.0 | 0.0 | 0.00 | 0.00 | 0.00 | 57 | 1015.0 |
| 20260505091004 | 58 | 212 | 0.0 | 0.0 | 0.00 | 0.00 | 0.00 | 57 | 1015.0 |
| 20260505090503 | 58 | 201 | 0.0 | 0.0 | 0.00 | 0.00 | 0.00 | 58 | 1015.0 |
| 20260505090003 | 58 | 201 | 0.0 | 0.0 | 0.00 | 0.00 | 0.00 | 58 | 1015.0 |
| 20260505085503 | 57 | 201 | 0.0 | 0.0 | 0.00 | 0.00 | 0.00 | 60 | 1015.0 |
| 20260505085002 | 57 | 201 | 0.0 | 0.0 | 0.00 | 0.00 | 0.00 | 60 | 1015.0 |
| 20260505084502 | 56 | 201 | 0.0 | 0.0 | 0.00 | 0.00 | 0.00 | 60 | 1015.0 |
| 20260505084002 | 56 | 201 | 0.0 | 0.0 | 0.00 | 0.00 | 0.00 | 60 | 1015.0 |
| 20260505083501 | 56 | 173 | 0.0 | 0.0 | 0.00 | 0.00 | 0.00 | 61 | 1015.0 |
| 20260505083001 | 56 | 173 | 0.0 | 0.0 | 0.00 | 0.00 | 0.00 | 61 | 1015.0 |
| 20260505082501 | 56 | 58 | 0.0 | 0.0 | 0.00 | 0.00 | 0.00 | 62 | 1015.0 |
| 20260505082000 | 56 | 58 | 0.0 | 0.0 | 0.00 | 0.00 | 0.00 | 62 | 1015.0 |
| 20260505081500 | 55 | 58 | 0.0 | 0.0 | 0.00 | 0.00 | 0.00 | 63 | 1015.0 |
| 20260505081005 | 55 | 58 | 0.0 | 0.0 | 0.00 | 0.00 | 0.00 | 63 | 1015.0 |
| 20260505080504 | 55 | 58 | 0.0 | 0.0 | 0.00 | 0.00 | 0.00 | 65 | 1015.0 |
| 20260505080004 | 55 | 58 | 0.0 | 0.0 | 0.00 | 0.00 | 0.00 | 65 | 1015.0 |
| 20260505075504 | 54 | 55 | 0.0 | 0.0 | 0.00 | 0.00 | 0.00 | 66 | 1015.0 |
| 20260505075003 | 54 | 55 | 0.0 | 0.0 | 0.00 | 0.00 | 0.00 | 66 | 1015.0 |
| 20260505074503 | 53 | 51 | 0.0 | 0.0 | 0.00 | 0.00 | 0.00 | 69 | 1015.0 |
| 20260505074002 | 53 | 51 | 0.0 | 0.0 | 0.00 | 0.00 | 0.00 | 69 | 1015.0 |
| 20260505073502 | 52 | 68 | 0.0 | 0.0 | 0.00 | 0.00 | 0.00 | 70 | 1015.0 |
| 20260505073002 | 52 | 68 | 0.0 | 0.0 | 0.00 | 0.00 | 0.00 | 70 | 1015.0 |
| 20260505072501 | 52 | 68 | 0.0 | 0.0 | 0.00 | 0.00 | 0.00 | 72 | 1015.0 |
| 20260505072001 | 52 | 68 | 0.0 | 0.0 | 0.00 | 0.00 | 0.00 | 72 | 1015.0 |
| 20260505071501 | 51 | 68 | 0.0 | 0.0 | 0.00 | 0.00 | 0.00 | 74 | 1015.0 |
| 20260505071000 | 51 | 68 | 0.0 | 0.0 | 0.00 | 0.00 | 0.00 | 74 | 1015.0 |
| 20260505070505 | 50 | 90 | 0.0 | 0.0 | 0.00 | 0.00 | 0.00 | 75 | 1015.0 |
| 20260505070005 | 50 | 90 | 0.0 | 0.0 | 0.00 | 0.00 | 0.00 | 75 | 1015.0 |
| 20260505065504 | 49 | 90 | 0.0 | 0.0 | 0.00 | 0.00 | 0.00 | 76 | 1015.0 |
| 20260505065003 | 49 | 90 | 0.0 | 0.0 | 0.00 | 0.00 | 0.00 | 76 | 1015.0 |
| 20260505064503 | 49 | 90 | 0.0 | 0.0 | 0.00 | 0.00 | 0.00 | 78 | 1015.0 |
| 20260505064003 | 49 | 90 | 0.0 | 0.0 | 0.00 | 0.00 | 0.00 | 78 | 1015.0 |
| 20260505063503 | 49 | 102 | 0.0 | 0.0 | 0.00 | 0.00 | 0.00 | 80 | 1015.0 |
| 20260505063002 | 49 | 102 | 0.0 | 0.0 | 0.00 | 0.00 | 0.00 | 80 | 1015.0 |
| 20260505062502 | 48 | 98 | 0.0 | 0.0 | 0.00 | 0.00 | 0.00 | 83 | 1015.0 |
| 20260505062001 | 48 | 98 | 0.0 | 0.0 | 0.00 | 0.00 | 0.00 | 83 | 1015.0 |
| 20260505061501 | 47 | 98 | 0.0 | 0.0 | 0.00 | 0.00 | 0.00 | 86 | 1015.0 |
| 20260505061001 | 47 | 98 | 0.0 | 0.0 | 0.00 | 0.00 | 0.00 | 86 | 1015.0 |
| 20260505060500 | 47 | 110 | 0.0 | 0.0 | 0.00 | 0.00 | 0.00 | 87 | 1015.0 |
| 20260505055504 | 46 | 106 | 0.0 | 0.0 | 0.00 | 0.00 | 0.00 | 88 | 1015.0 |
| 20260505055004 | 46 | 106 | 0.0 | 0.0 | 0.00 | 0.00 | 0.00 | 88 | 1015.0 |
| 20260505054504 | 45 | 106 | 0.0 | 0.0 | 0.00 | 0.00 | 0.00 | 89 | 1015.0 |
| 20260505054003 | 45 | 106 | 0.0 | 0.0 | 0.00 | 0.00 | 0.00 | 89 | 1015.0 |
| 20260505053503 | 45 | 120 | 0.0 | 0.0 | 0.00 | 0.00 | 0.00 | 89 | 1015.0 |
| 20260505053003 | 45 | 120 | 0.0 | 0.0 | 0.00 | 0.00 | 0.00 | 89 | 1015.0 |
| 20260505052502 | 44 | 120 | 0.0 | 0.0 | 0.00 | 0.00 | 0.00 | 90 | 1015.0 |
| 20260505052002 | 44 | 120 | 0.0 | 0.0 | 0.00 | 0.00 | 0.00 | 90 | 1015.0 |
| 20260505051501 | 43 | 120 | 0.0 | 0.0 | 0.00 | 0.00 | 0.00 | 90 | 1015.0 |
| 20260505051001 | 43 | 120 | 0.0 | 0.0 | 0.00 | 0.00 | 0.00 | 90 | 1015.0 |
| 20260505050501 | 43 | 135 | 0.0 | 0.0 | 0.00 | 0.00 | 0.00 | 90 | 1015.0 |
| 20260505041501 | 41 | 150 | 0.0 | 0.0 | 0.00 | 0.00 | 0.00 | 89 | 1015.0 |
| 20260505041001 | 41 | 150 | 0.0 | 0.0 | 0.00 | 0.00 | 0.00 | 89 | 1015.0 |
| 20260505040501 | 41 | 50 | 0.0 | 0.0 | 0.00 | 0.00 | 0.00 | 88 | 1015.0 |
| 20260505040000 | 41 | 50 | 0.0 | 0.0 | 0.00 | 0.00 | 0.00 | 88 | 1015.0 |
| 20260505035505 | 41 | 149 | 0.0 | 0.0 | 0.00 | 0.00 | 0.00 | 89 | 1015.0 |
| 20260505035004 | 41 | 149 | 0.0 | 0.0 | 0.00 | 0.00 | 0.00 | 89 | 1015.0 |
| 20260505034504 | 41 | 149 | 0.0 | 0.0 | 0.00 | 0.00 | 0.00 | 89 | 1015.0 |
| 20260505034004 | 41 | 149 | 0.0 | 0.0 | 0.00 | 0.00 | 0.00 | 89 | 1015.0 |
| 20260505033504 | 41 | 133 | 0.0 | 0.0 | 0.00 | 0.00 | 0.00 | 89 | 1015.0 |
| 20260505033003 | 41 | 133 | 0.0 | 0.0 | 0.00 | 0.00 | 0.00 | 89 | 1015.0 |
| 20260505032503 | 41 | 132 | 0.0 | 0.0 | 0.00 | 0.00 | 0.00 | 90 | 1015.0 |
| 20260505032002 | 41 | 132 | 0.0 | 0.0 | 0.00 | 0.00 | 0.00 | 90 | 1015.0 |
| 20260505031502 | 41 | 127 | 0.0 | 0.0 | 0.00 | 0.00 | 0.00 | 90 | 1015.0 |
| 20260505031002 | 41 | 127 | 0.0 | 0.0 | 0.00 | 0.00 | 0.00 | 90 | 1015.0 |
| 20260505030501 | 41 | 127 | 0.0 | 0.0 | 0.00 | 0.00 | 0.00 | 90 | 1015.0 |
| 20260505030001 | 41 | 127 | 0.0 | 0.0 | 0.00 | 0.00 | 0.00 | 90 | 1015.0 |
| 20260505025501 | 41 | 222 | 0.0 | 0.0 | 0.00 | 0.00 | 0.00 | 90 | 1015.0 |
| 20260505025000 | 41 | 222 | 0.0 | 0.0 | 0.00 | 0.00 | 0.00 | 90 | 1015.0 |
| 20260505024505 | 41 | 222 | 0.0 | 0.0 | 0.00 | 0.00 | 0.00 | 90 | 1015.0 |
| 20260505024004 | 41 | 222 | 0.0 | 0.0 | 0.00 | 0.00 | 0.00 | 90 | 1015.0 |
| 20260505023504 | 41 | 216 | 0.0 | 0.0 | 0.00 | 0.00 | 0.00 | 89 | 1015.0 |
| 20260505023004 | 41 | 216 | 0.0 | 0.0 | 0.00 | 0.00 | 0.00 | 89 | 1015.0 |
| 20260505022503 | 41 | 216 | 0.0 | 0.0 | 0.00 | 0.00 | 0.00 | 89 | 1015.0 |
| 20260505022003 | 41 | 216 | 0.0 | 0.0 | 0.00 | 0.00 | 0.00 | 89 | 1015.0 |
| 20260505021503 | 41 | 213 | 0.0 | 0.0 | 0.00 | 0.00 | 0.00 | 89 | 1015.0 |
| 20260505021002 | 41 | 213 | 0.0 | 0.0 | 0.00 | 0.00 | 0.00 | 89 | 1015.0 |
| 20260505020502 | 41 | 168 | 0.0 | 0.0 | 0.00 | 0.00 | 0.00 | 88 | 1015.0 |
| 20260505020002 | 41 | 168 | 0.0 | 0.0 | 0.00 | 0.00 | 0.00 | 88 | 1015.0 |
| 20260505015501 | 41 | 168 | 0.0 | 0.0 | 0.00 | 0.00 | 0.00 | 87 | 1015.0 |
| 20260505015001 | 41 | 168 | 0.0 | 0.0 | 0.00 | 0.00 | 0.00 | 87 | 1015.0 |
| 20260505014501 | 41 | 151 | 0.0 | 0.0 | 0.00 | 0.00 | 0.00 | 87 | 1015.0 |
| 20260505014001 | 41 | 151 | 0.0 | 0.0 | 0.00 | 0.00 | 0.00 | 87 | 1015.0 |
| 20260505013005 | 41 | 151 | 0.0 | 0.0 | 0.00 | 0.00 | 0.00 | 87 | 1015.0 |
| 20260505012504 | 41 | 151 | 0.0 | 0.0 | 0.00 | 0.00 | 0.00 | 87 | 1015.0 |
| 20260505012004 | 41 | 151 | 0.0 | 0.0 | 0.00 | 0.00 | 0.00 | 87 | 1015.0 |
| 20260505011504 | 41 | 195 | 0.0 | 0.0 | 0.00 | 0.00 | 0.00 | 86 | 1015.0 |
| 20260505011003 | 41 | 195 | 0.0 | 0.0 | 0.00 | 0.00 | 0.00 | 86 | 1015.0 |
| 20260505010503 | 41 | 195 | 0.0 | 0.0 | 0.00 | 0.00 | 0.00 | 85 | 1015.0 |
| 20260505010002 | 41 | 195 | 0.0 | 0.0 | 0.00 | 0.00 | 0.00 | 85 | 1015.0 |
| 20260505005502 | 41 | 194 | 0.0 | 0.0 | 0.00 | 0.00 | 0.00 | 85 | 1015.0 |
| 20260505005002 | 41 | 194 | 0.0 | 0.0 | 0.00 | 0.00 | 0.00 | 85 | 1015.0 |
| 20260505004501 | 41 | 194 | 0.0 | 0.0 | 0.00 | 0.00 | 0.00 | 84 | 1015.0 |
| 20260505004001 | 41 | 194 | 0.0 | 0.0 | 0.00 | 0.00 | 0.00 | 84 | 1015.0 |
| 20260505003501 | 41 | 206 | 0.0 | 0.0 | 0.00 | 0.00 | 0.00 | 83 | 1015.0 |
| 20260505003000 | 41 | 206 | 0.0 | 0.0 | 0.00 | 0.00 | 0.00 | 83 | 1015.0 |
| 20260505002505 | 42 | 149 | 0.0 | 0.0 | 0.00 | 0.00 | 0.00 | 83 | 1015.0 |
| 20260505002004 | 42 | 149 | 0.0 | 0.0 | 0.00 | 0.00 | 0.00 | 83 | 1015.0 |
| 20260505001504 | 42 | 149 | 0.0 | 0.0 | 0.00 | 0.00 | 0.00 | 82 | 1015.0 |
| 20260505001004 | 42 | 149 | 0.0 | 0.0 | 0.00 | 0.00 | 0.00 | 82 | 1015.0 |
| 20260505000503 | 42 | 178 | 0.0 | 0.0 | 0.00 | 0.00 | 0.00 | 82 | 1015.0 |
| 20260505000003 | 42 | 178 | 0.0 | 0.0 | 0.00 | 0.00 | 0.00 | 82 | 1015.0 |
| 20260504235502 | 42 | 165 | 0.0 | 0.0 | 0.00 | 0.00 | 0.00 | 82 | 1015.0 |
| 20260504235002 | 42 | 165 | 0.0 | 0.0 | 0.00 | 0.00 | 0.00 | 82 | 1015.0 |
| 20260504234502 | 43 | 210 | 0.0 | 0.0 | 0.00 | 0.00 | 0.00 | 81 | 1015.0 |
| 20260504234001 | 43 | 210 | 0.0 | 0.0 | 0.00 | 0.00 | 0.00 | 81 | 1015.0 |
| 20260504233501 | 43 | 210 | 0.0 | 0.0 | 0.00 | 0.00 | 0.00 | 82 | 1015.0 |
| 20260504233001 | 43 | 210 | 0.0 | 0.0 | 0.00 | 0.00 | 0.00 | 82 | 1015.0 |
| 20260504232501 | 44 | 210 | 0.0 | 0.0 | 0.00 | 0.00 | 0.00 | 81 | 1015.0 |
| 20260504232000 | 44 | 210 | 0.0 | 0.0 | 0.00 | 0.00 | 0.00 | 81 | 1015.0 |
| 20260504231505 | 44 | 210 | 0.0 | 0.0 | 0.00 | 0.00 | 0.00 | 80 | 1015.0 |
| 20260504231004 | 44 | 210 | 0.0 | 0.0 | 0.00 | 0.00 | 0.00 | 80 | 1015.0 |
| 20260504230504 | 44 | 210 | 0.0 | 0.0 | 0.00 | 0.00 | 0.00 | 80 | 1015.0 |
| 20260504230004 | 44 | 210 | 0.0 | 0.0 | 0.00 | 0.00 | 0.00 | 80 | 1015.0 |
| 20260504225503 | 45 | 210 | 0.0 | 0.0 | 0.00 | 0.00 | 0.00 | 81 | 1015.0 |
| 20260504225003 | 45 | 210 | 0.0 | 0.0 | 0.00 | 0.00 | 0.00 | 81 | 1015.0 |
| 20260504224503 | 45 | 210 | 0.0 | 0.0 | 0.00 | 0.00 | 0.00 | 80 | 1015.0 |
| 20260504224003 | 45 | 210 | 0.0 | 0.0 | 0.00 | 0.00 | 0.00 | 80 | 1015.0 |
| 20260504223502 | 45 | 193 | 0.0 | 0.0 | 0.00 | 0.00 | 0.00 | 79 | 1015.0 |
| 20260504223002 | 45 | 193 | 0.0 | 0.0 | 0.00 | 0.00 | 0.00 | 79 | 1015.0 |
| 20260504222501 | 45 | 193 | 0.0 | 0.0 | 0.00 | 0.00 | 0.00 | 79 | 1015.0 |
| 20260504222001 | 45 | 193 | 0.0 | 0.0 | 0.00 | 0.00 | 0.00 | 79 | 1015.0 |
| 20260504221501 | 46 | 193 | 0.0 | 0.0 | 0.00 | 0.00 | 0.00 | 78 | 1015.0 |
| 20260504221000 | 46 | 193 | 0.0 | 0.0 | 0.00 | 0.00 | 0.00 | 78 | 1015.0 |
| 20260504220505 | 46 | 201 | 0.0 | 0.0 | 0.00 | 0.00 | 0.00 | 77 | 1015.0 |
| 20260504220004 | 46 | 201 | 0.0 | 0.0 | 0.00 | 0.00 | 0.00 | 77 | 1015.0 |
| 20260504215504 | 46 | 212 | 0.0 | 0.0 | 0.00 | 0.00 | 0.00 | 78 | 1015.0 |
| 20260504215004 | 46 | 212 | 0.0 | 0.0 | 0.00 | 0.00 | 0.00 | 78 | 1015.0 |
| 20260504214503 | 46 | 212 | 0.0 | 0.0 | 0.00 | 0.00 | 0.00 | 77 | 1016.0 |
| 20260504214003 | 46 | 212 | 0.0 | 0.0 | 0.00 | 0.00 | 0.00 | 77 | 1016.0 |
| 20260504213502 | 46 | 208 | 0.0 | 0.0 | 0.00 | 0.00 | 0.00 | 75 | 1016.0 |
| 20260504213002 | 46 | 208 | 0.0 | 0.0 | 0.00 | 0.00 | 0.00 | 75 | 1016.0 |
| 20260504212502 | 47 | 208 | 0.0 | 0.0 | 0.00 | 0.00 | 0.00 | 74 | 1015.0 |
| 20260504212001 | 47 | 208 | 0.0 | 0.0 | 0.00 | 0.00 | 0.00 | 74 | 1015.0 |
| 20260504211501 | 47 | 208 | 0.0 | 0.0 | 0.00 | 0.00 | 0.00 | 74 | 1015.0 |
| 20260504211001 | 47 | 208 | 0.0 | 0.0 | 0.00 | 0.00 | 0.00 | 74 | 1015.0 |
| 20260504210501 | 47 | 208 | 0.0 | 0.0 | 0.00 | 0.00 | 0.00 | 72 | 1015.0 |
| 20260504210000 | 47 | 208 | 0.0 | 0.0 | 0.00 | 0.00 | 0.00 | 72 | 1015.0 |
| 20260504205500 | 48 | 208 | 0.0 | 0.0 | 0.00 | 0.00 | 0.00 | 71 | 1015.0 |
| 20260504205004 | 48 | 208 | 0.0 | 0.0 | 0.00 | 0.00 | 0.00 | 71 | 1015.0 |
| 20260504204504 | 48 | 208 | 0.0 | 0.0 | 0.00 | 0.00 | 0.00 | 70 | 1015.0 |
| 20260504204004 | 48 | 208 | 0.0 | 0.0 | 0.00 | 0.00 | 0.00 | 70 | 1015.0 |
| 20260504203503 | 49 | 208 | 0.0 | 0.0 | 0.00 | 0.00 | 0.00 | 70 | 1015.0 |
| 20260504203003 | 49 | 208 | 0.0 | 0.0 | 0.00 | 0.00 | 0.00 | 70 | 1015.0 |
| 20260504202503 | 49 | 208 | 0.0 | 0.0 | 0.00 | 0.00 | 0.00 | 67 | 1015.0 |
| 20260504202002 | 49 | 208 | 0.0 | 0.0 | 0.00 | 0.00 | 0.00 | 67 | 1015.0 |
| 20260504201502 | 50 | 198 | 0.0 | 0.0 | 0.00 | 0.00 | 0.00 | 66 | 1015.0 |
| 20260504201002 | 50 | 198 | 0.0 | 0.0 | 0.00 | 0.00 | 0.00 | 66 | 1015.0 |
| 20260504200501 | 51 | 198 | 0.0 | 0.0 | 0.00 | 0.00 | 0.00 | 65 | 1015.0 |
| 20260504200001 | 51 | 198 | 0.0 | 0.0 | 0.00 | 0.00 | 0.00 | 65 | 1015.0 |
| 20260504195501 | 51 | 198 | 0.0 | 0.0 | 0.00 | 0.00 | 0.00 | 65 | 1015.0 |
| 20260504195000 | 51 | 198 | 0.0 | 0.0 | 0.00 | 0.00 | 0.00 | 65 | 1015.0 |
| 20260504194500 | 52 | 194 | 0.0 | 0.0 | 0.00 | 0.00 | 0.00 | 64 | 1015.0 |
| 20260504194005 | 52 | 194 | 0.0 | 0.0 | 0.00 | 0.00 | 0.00 | 64 | 1015.0 |
| 20260504193504 | 53 | 194 | 0.0 | 0.0 | 0.00 | 0.00 | 0.00 | 63 | 1015.0 |
| 20260504193004 | 53 | 194 | 0.0 | 0.0 | 0.00 | 0.00 | 0.00 | 63 | 1015.0 |
| 20260504192503 | 53 | 183 | 0.0 | 0.0 | 0.00 | 0.00 | 0.00 | 62 | 1015.0 |
| 20260504192003 | 53 | 183 | 0.0 | 0.0 | 0.00 | 0.00 | 0.00 | 62 | 1015.0 |
| 20260504191503 | 54 | 183 | 0.0 | 0.0 | 0.00 | 0.00 | 0.00 | 61 | 1015.0 |
| 20260504191002 | 54 | 183 | 0.0 | 0.0 | 0.00 | 0.00 | 0.00 | 61 | 1015.0 |
| 20260504190502 | 54 | 183 | 0.0 | 0.0 | 0.00 | 0.00 | 0.00 | 60 | 1015.0 |
| 20260504190002 | 54 | 183 | 0.0 | 0.0 | 0.00 | 0.00 | 0.00 | 60 | 1015.0 |
| 20260504185501 | 55 | 184 | 0.0 | 0.0 | 0.00 | 0.00 | 0.00 | 59 | 1015.0 |
| 20260504185001 | 55 | 184 | 0.0 | 0.0 | 0.00 | 0.00 | 0.00 | 59 | 1015.0 |
| 20260504184500 | 56 | 192 | 0.0 | 0.0 | 0.00 | 0.00 | 0.00 | 58 | 1015.0 |
| 20260504184000 | 56 | 192 | 0.0 | 0.0 | 0.00 | 0.00 | 0.00 | 58 | 1015.0 |
| 20260504183505 | 56 | 194 | 0.0 | 0.0 | 0.00 | 0.00 | 0.00 | 57 | 1015.0 |
| 20260504183004 | 56 | 194 | 0.0 | 0.0 | 0.00 | 0.00 | 0.00 | 57 | 1015.0 |
| 20260504182504 | 56 | 205 | 0.0 | 0.0 | 0.00 | 0.00 | 0.00 | 56 | 1014.0 |
| 20260504182004 | 56 | 205 | 0.0 | 0.0 | 0.00 | 0.00 | 0.00 | 56 | 1014.0 |
| 20260504181503 | 57 | 205 | 0.0 | 0.0 | 0.00 | 0.00 | 0.00 | 54 | 1014.0 |
| 20260504181003 | 57 | 205 | 0.0 | 0.0 | 0.00 | 0.00 | 0.00 | 54 | 1014.0 |
| 20260504180503 | 58 | 205 | 0.0 | 0.0 | 0.00 | 0.00 | 0.00 | 52 | 1014.0 |
| 20260504180002 | 58 | 205 | 0.0 | 0.0 | 0.00 | 0.00 | 0.00 | 52 | 1014.0 |
| 20260504175502 | 58 | 205 | 0.0 | 0.0 | 0.00 | 0.00 | 0.00 | 51 | 1014.0 |
| 20260504175002 | 58 | 205 | 0.0 | 0.0 | 0.00 | 0.00 | 0.00 | 51 | 1014.0 |
| 20260504174501 | 58 | 211 | 0.0 | 0.0 | 0.00 | 0.00 | 0.00 | 48 | 1014.0 |